[[{"header":{"parameterUnit":"m.s-1","parameterCategory":1,"la1":30.2991,"la2":30.254,"lo1":-89.0895,"lo2":-89.0444,"dy":0.0017,"dx":0.0017,"nx":28,"ny":28,"refTime":"2024-08-10T03:00:00:Z","depth":0,"parameterNumber":2,"parameterNumberName":"U-component_of_WINDS"},"data":[0,0,0,0,0,0,0,0,0,0,0,0,0,0,0,0,0,0,0,0,0,0,0,0,0,0,0,0,0,0,0,0,0,0,0,0,0,0,0,0,0,0,0,0,0,0,0,0,0,0,0,0,0,0,0,0,0,0,0.5016,0.5016,0,0.498,0.4979,0.4979,0.4984,0.4985,0.4985,0.4986,0.4945,0.4943,0.4941,0,0,0,0,0,0,0,0,0,0,0,0,0,0.509,0.5089,0.5017,0.5016,0.5016,0.498,0.4979,0.4979,0.4984,0.4985,0.4985,0.4986,0.4945,0.4943,0.4941,0,0,0,0,0,0,0,0,0,0,0,0,0,0.5056,0.5088,0.5017,0.5014,0.5013,0.498,0.4979,0.4978,0.4984,0.4985,0.4986,0.4987,0.4946,0.4943,0.4941,0.4906,0,0,0.4933,0.4932,0,0,0,0,0,0,0,0,0.5058,0.5053,0.5015,0.5014,0.5013,0.4987,0.499,0.4954,0.4984,0.4995,0.4986,0.4987,0.4958,0.4954,0.4945,0.4905,0.4903,0.4933,0.4932,0.493,0.493,0,0,0,0,0,0,0,0.506,0.5055,0.5002,0.5014,0.5013,0.5014,0.501,0.4983,0.4971,0.4994,0.4994,0.499,0.4958,0.4948,0.4944,0.4902,0.4933,0.4931,0.4929,0.4928,0.4833,0.4832,0,0,0,0,0,0,0.5064,0.5057,0.5003,0.5001,0.5039,0.5012,0.5008,0.4995,0.4972,0.4969,0.4989,0.499,0.4952,0.4947,0.4943,0.4901,0.493,0.4928,0.4927,0.4834,0.4832,0.4831,0,0,0,0,0,0,0.5065,0.5059,0.5004,0.5029,0.5022,0.501,0.4995,0.4994,0.4984,0.4968,0.4966,0.4981,0.4952,0.4947,0.4916,0.49,0.4927,0.4925,0.4835,0.4833,0.4832,0.4818,0,0,0,0,0,0,0.5067,0.5059,0.5046,0.5029,0.5021,0.4978,0.4994,0.4992,0.498,0.4981,0.496,0.4958,0.4953,0.492,0.4914,0.4897,0.4923,0.4836,0.4834,0.4832,0.482,0.4816,0.4813,0,0,0,0,0,0.507,0.5043,0.5046,0.5039,0.5004,0.4977,0.4973,0.4968,0.4978,0.4965,0.4956,0.4958,0.4903,0.4917,0.491,0.4892,0.4837,0.4835,0.4832,0.4821,0.4817,0.4813,0,0,0,0,0,0,0.5057,0.504,0.5043,0.501,0.4995,0.4978,0.4961,0.4964,0.4945,0.4947,0.4941,0.4937,0.4906,0.4896,0.4911,0.4858,0.4872,0.4868,0.4865,0.4861,0.4858,0.486,0.4921,0,0,0,0,0,0.5051,0.5031,0.5017,0.4989,0.4982,0.4973,0.4961,0.4959,0.4943,0.4937,0.4925,0.4909,0.4888,0.4874,0.4854,0.4819,0.4815,0.4804,0.4801,0.4798,0.4794,0.4776,0.4771,0.4824,0.4824,0.4824,0,0,0.5036,0.5025,0.5013,0.4986,0.4975,0.4954,0.4967,0.4945,0.4929,0.4933,0.4904,0.4895,0.4877,0.4844,0.4829,0.4835,0.4779,0.4795,0.4793,0.4791,0.4773,0.4768,0.4763,0.4822,0.4822,0.4823,0,0,0.5,0.4989,0.4965,0.4954,0.4937,0.4932,0.4926,0.491,0.4905,0.4876,0.4879,0.486,0.4824,0.4811,0.48,0.4762,0.4764,0.4756,0.4737,0.4719,0.4715,0.4711,0.4698,0.4693,0.4752,0.4752,0.4752,0,0.4984,0.4953,0.4952,0.4929,0.4918,0.4923,0.4898,0.4887,0.4864,0.4856,0.4864,0.482,0.4808,0.4773,0.4764,0.4755,0.4748,0.4757,0.4716,0.4712,0.4709,0.4695,0.469,0.4751,0.4751,0.4752,0.4752,0,0.4935,0.4914,0.4896,0.4876,0.4862,0.4839,0.4833,0.482,0.4821,0.4814,0.4785,0.4772,0.475,0.4742,0.4741,0.4707,0.4711,0.4718,0.473,0.4703,0.469,0.4685,0.475,0.475,0.4751,0.4751,0,0,0.4885,0.4867,0.486,0.4852,0.4835,0.4819,0.4796,0.4776,0.4765,0.4749,0.473,0.4701,0.4708,0.4695,0.4693,0.4678,0.4649,0.4686,0.4686,0.4679,0.461,0.4605,0.4599,0.4651,0.465,0.4649,0.4612,0,0.4847,0.4807,0.4807,0.477,0.4751,0.4757,0.4737,0.4725,0.4719,0.4702,0.4696,0.4675,0.4686,0.4678,0.4664,0.4655,0.4635,0.4658,0.4632,0.4631,0.4635,0.4592,0.4586,0.4551,0.4607,0.4606,0.4605,0,0.4795,0.478,0.4743,0.473,0.4722,0.4705,0.4687,0.4671,0.4657,0.4654,0.4642,0.4643,0.462,0.4635,0.4603,0.462,0.4609,0.4604,0.4603,0.4598,0.4615,0.4586,0.4539,0.4534,0.4598,0.4598,0.4599,0,0.4763,0.4733,0.4707,0.47,0.4685,0.4673,0.4666,0.4653,0.4642,0.4627,0.4619,0.4601,0.4591,0.4577,0.4573,0.4585,0.4541,0.4556,0.4537,0.4537,0.4526,0.4526,0.4476,0.4522,0.4522,0.4522,0.4522,0,0.4718,0.4695,0.4693,0.4676,0.465,0.4651,0.4625,0.4619,0.4608,0.4591,0.4595,0.4578,0.4575,0.4558,0.4555,0.4529,0.4525,0.4522,0.4521,0.452,0.4521,0.4512,0.4514,0.452,0.4521,0.4521,0.4521,0,0.4676,0.4674,0.4646,0.4636,0.4633,0.4614,0.4605,0.4589,0.4585,0.4563,0.4558,0.4552,0.4532,0.4528,0.4504,0.4502,0.4471,0.4473,0.4476,0.4476,0.4457,0.4459,0.4398,0.439,0.4442,0.4442,0.4441,0,0.4648,0.463,0.4618,0.4608,0.4601,0.4583,0.4572,0.4573,0.4561,0.4546,0.4532,0.4513,0.4498,0.4466,0.4459,0.4441,0.4442,0.4423,0.4439,0.444,0.4441,0.4442,0.444,0.4419,0.4418,0.4418,0.4417,0,0.4596,0.4597,0.4581,0.4566,0.4554,0.4541,0.4529,0.452,0.4519,0.4506,0.4487,0.4475,0.4452,0.4433,0.4416,0.4409,0.4412,0.4413,0.4407,0.4406,0.4408,0.4406,0.4466,0.4413,0.4414,0.4414,0.4414,0.4414,0.4559,0.4544,0.4534,0.4518,0.451,0.4499,0.4484,0.448,0.4464,0.4446,0.4448,0.4427,0.4416,0.4393,0.4385,0.4368,0.4374,0.4367,0.4364,0.4362,0.436,0.4412,0.4365,0.4365,0.4365,0.4366,0.4366,0,0.4508,0.4502,0.4487,0.4472,0.4459,0.4466,0.4454,0.4443,0.4424,0.4414,0.44,0.4379,0.4361,0.4354,0.4337,0.4325,0.4327,0.4321,0.4321,0.4319,0.4356,0.4362,0.432,0.432,0.432,0.432,0.432,0.432,0.4479,0.4454,0.4454,0.4426,0.4421,0.4401,0.4394,0.4384,0.4377,0.4353,0.4339,0.4335,0.4326,0.4309,0.4294,0.4292,0.4285,0.4278,0.4277,0.4312,0.4316,0.432,0.4326,0.4277,0.4277,0.4241,0.4241,0.4241]},{"header":{"parameterUnit":"m.s-1","parameterCategory":1,"la1":30.2991,"la2":30.254,"lo1":-89.0895,"lo2":-89.0444,"dy":0.0017,"dx":0.0017,"nx":28,"ny":28,"refTime":"2024-08-10T03:00:00:Z","depth":0,"parameterNumber":3,"parameterNumberName":"V-component_of_WINDS"},"data":[0,0,0,0,0,0,0,0,0,0,0,0,0,0,0,0,0,0,0,0,0,0,0,0,0,0,0,0,0,0,0,0,0,0,0,0,0,0,0,0,0,0,0,0,0,0,0,0,0,0,0,0,0,0,0,0,0,0,-2.5755,-2.5757,0,-2.5887,-2.5888,-2.589,-2.5893,-2.5892,-2.589,-2.5889,-2.6024,-2.6029,-2.6034,0,0,0,0,0,0,0,0,0,0,0,0,0,-2.5508,-2.5513,-2.5755,-2.5757,-2.5758,-2.5886,-2.5888,-2.589,-2.5894,-2.5892,-2.589,-2.5888,-2.6023,-2.6029,-2.6035,0,0,0,0,0,0,0,0,0,0,0,0,0,-2.5625,-2.5514,-2.5755,-2.5776,-2.5779,-2.5886,-2.5888,-2.5891,-2.5894,-2.5892,-2.5889,-2.5887,-2.6021,-2.6028,-2.6036,-2.6131,0,0,-2.6059,-2.6062,0,0,0,0,0,0,0,0,-2.5618,-2.5634,-2.5771,-2.5774,-2.5778,-2.5871,-2.5851,-2.5971,-2.5895,-2.585,-2.5889,-2.5886,-2.5975,-2.5987,-2.6017,-2.6138,-2.6143,-2.606,-2.6064,-2.6068,-2.607,0,0,0,0,0,0,0,-2.561,-2.5629,-2.5807,-2.5773,-2.5777,-2.5779,-2.5793,-2.5874,-2.5925,-2.5854,-2.5855,-2.587,-2.5977,-2.6009,-2.602,-2.6145,-2.606,-2.6066,-2.6071,-2.6074,-2.6352,-2.6355,0,0,0,0,0,0,-2.5598,-2.5622,-2.5803,-2.5811,-2.5691,-2.5785,-2.5801,-2.5844,-2.5924,-2.5934,-2.5872,-2.587,-2.5997,-2.6011,-2.6025,-2.6142,-2.6068,-2.6075,-2.6079,-2.6349,-2.6353,-2.6356,0,0,0,0,0,0,-2.5593,-2.5614,-2.5798,-2.5717,-2.574,-2.5792,-2.584,-2.5848,-2.588,-2.5938,-2.5947,-2.5896,-2.5996,-2.6014,-2.6105,-2.6147,-2.6078,-2.6085,-2.6346,-2.635,-2.6354,-2.6378,0,0,0,0,0,0,-2.5586,-2.5612,-2.5649,-2.5717,-2.5744,-2.5876,-2.5843,-2.5852,-2.5893,-2.5891,-2.5962,-2.5972,-2.5995,-2.6093,-2.6112,-2.6156,-2.6091,-2.6342,-2.6348,-2.6353,-2.6374,-2.6382,-2.639,0,0,0,0,0,-2.5577,-2.565,-2.5651,-2.5673,-2.5791,-2.5878,-2.5893,-2.5919,-2.5896,-2.5934,-2.5971,-2.5969,-2.6139,-2.6103,-2.6124,-2.6171,-2.634,-2.6346,-2.6352,-2.637,-2.6381,-2.639,0,0,0,0,0,0,-2.5586,-2.566,-2.5661,-2.5759,-2.5812,-2.5878,-2.5926,-2.593,-2.5991,-2.5986,-2.6016,-2.6032,-2.6122,-2.6156,-2.6114,-2.6268,-2.6237,-2.6248,-2.6243,-2.6254,-2.6262,-2.6252,-2.6098,0,0,0,0,0,-2.5599,-2.5663,-2.5724,-2.5805,-2.5832,-2.5874,-2.5913,-2.5928,-2.5985,-2.6007,-2.6051,-2.6106,-2.6172,-2.6214,-2.6278,-2.6378,-2.6394,-2.6421,-2.6429,-2.6436,-2.6445,-2.6501,-2.6514,-2.6376,-2.6376,-2.6376,0,0,-2.5628,-2.5676,-2.5714,-2.5808,-2.5851,-2.5917,-2.5893,-2.5964,-2.6013,-2.6018,-2.6107,-2.614,-2.6204,-2.63,-2.6344,-2.633,-2.6486,-2.6444,-2.6448,-2.6454,-2.6508,-2.6521,-2.6533,-2.638,-2.638,-2.6379,0,0,-2.5713,-2.5756,-2.5828,-2.5871,-2.5937,-2.5965,-2.5982,-2.6048,-2.607,-2.616,-2.6165,-2.6224,-2.6336,-2.6381,-2.6419,-2.6521,-2.6522,-2.6541,-2.6584,-2.6638,-2.6649,-2.6659,-2.6696,-2.6709,-2.655,-2.655,-2.655,0,-2.574,-2.5839,-2.5865,-2.5936,-2.5977,-2.5984,-2.6057,-2.6098,-2.6181,-2.6209,-2.6192,-2.6334,-2.6377,-2.6484,-2.6509,-2.6539,-2.656,-2.6534,-2.6645,-2.6655,-2.6665,-2.6701,-2.6714,-2.6552,-2.6552,-2.6552,-2.6552,0,-2.587,-2.5938,-2.5989,-2.6068,-2.6115,-2.6187,-2.6223,-2.6268,-2.6279,-2.6309,-2.6399,-2.6451,-2.6526,-2.6552,-2.6564,-2.6661,-2.665,-2.6639,-2.6609,-2.668,-2.6714,-2.6727,-2.6555,-2.6554,-2.6554,-2.6553,0,0,-2.5965,-2.6058,-2.6076,-2.6112,-2.6184,-2.6238,-2.631,-2.6383,-2.642,-2.6477,-2.6539,-2.6634,-2.6624,-2.6666,-2.6683,-2.673,-2.6809,-2.6714,-2.6715,-2.673,-2.6919,-2.6928,-2.6943,-2.6809,-2.6812,-2.6814,-2.6914,0,-2.6059,-2.6187,-2.6212,-2.6323,-2.6387,-2.6395,-2.6458,-2.6509,-2.6539,-2.6598,-2.663,-2.6698,-2.6679,-2.6705,-2.6752,-2.6789,-2.6847,-2.6782,-2.6867,-2.687,-2.6852,-2.6961,-2.697,-2.7062,-2.6928,-2.693,-2.6932,0,-2.6186,-2.6245,-2.6363,-2.6427,-2.6455,-2.6511,-2.6579,-2.6635,-2.6694,-2.6712,-2.6759,-2.6771,-2.6846,-2.6812,-2.6916,-2.6872,-2.6908,-2.6931,-2.6936,-2.6945,-2.6905,-2.6974,-2.7092,-2.7106,-2.6953,-2.6951,-2.6949,0,-2.6244,-2.6354,-2.6439,-2.6469,-2.6546,-2.6585,-2.6619,-2.6675,-2.6717,-2.6777,-2.6804,-2.6872,-2.691,-2.6962,-2.6992,-2.6964,-2.7094,-2.7062,-2.7112,-2.7111,-2.714,-2.7138,-2.7266,-2.7162,-2.7162,-2.7162,-2.7161,0,-2.6347,-2.6419,-2.6466,-2.6518,-2.6599,-2.6627,-2.6706,-2.6739,-2.6789,-2.6848,-2.6858,-2.6914,-2.6949,-2.7009,-2.7033,-2.7116,-2.7133,-2.715,-2.7156,-2.715,-2.7147,-2.7174,-2.7169,-2.7165,-2.7165,-2.7164,-2.7163,0,-2.6426,-2.646,-2.6553,-2.6618,-2.6636,-2.6693,-2.6748,-2.6799,-2.6829,-2.6903,-2.6922,-2.6969,-2.7041,-2.7075,-2.7164,-2.718,-2.7274,-2.7275,-2.7254,-2.7257,-2.7305,-2.73,-2.7455,-2.7477,-2.7358,-2.7359,-2.736,0,-2.6489,-2.6545,-2.6615,-2.6655,-2.669,-2.6754,-2.6797,-2.6827,-2.6871,-2.6941,-2.6984,-2.7056,-2.7115,-2.7229,-2.7271,-2.7339,-2.7343,-2.7392,-2.7353,-2.7345,-2.7344,-2.734,-2.7346,-2.7399,-2.7401,-2.7401,-2.7402,0,-2.6598,-2.6613,-2.6674,-2.6741,-2.6792,-2.6846,-2.69,-2.6932,-2.697,-2.702,-2.7093,-2.7138,-2.7229,-2.7301,-2.7371,-2.7407,-2.7411,-2.7414,-2.7429,-2.7424,-2.741,-2.7419,-2.7274,-2.7411,-2.741,-2.7409,-2.7409,-2.7408,-2.6672,-2.6722,-2.6779,-2.6847,-2.689,-2.694,-2.6991,-2.7027,-2.7088,-2.7164,-2.7178,-2.7256,-2.7313,-2.7408,-2.7446,-2.7507,-2.7496,-2.7518,-2.7524,-2.7529,-2.7532,-2.74,-2.752,-2.752,-2.752,-2.752,-2.752,0,-2.6782,-2.6819,-2.6881,-2.6956,-2.7009,-2.7008,-2.7067,-2.7112,-2.7181,-2.7233,-2.7291,-2.7375,-2.7445,-2.7492,-2.7562,-2.7602,-2.7606,-2.762,-2.7618,-2.7626,-2.7538,-2.7518,-2.7616,-2.7616,-2.7616,-2.7616,-2.7615,-2.7615,-2.6846,-2.693,-2.6951,-2.7056,-2.7093,-2.7169,-2.7203,-2.7249,-2.7292,-2.7385,-2.7442,-2.7473,-2.7523,-2.7597,-2.7661,-2.7673,-2.7699,-2.7713,-2.7725,-2.7642,-2.7632,-2.7622,-2.7604,-2.7718,-2.7718,-2.7808,-2.7809,-2.7809]}]]